Leadville, CO

3:45 PM MST on December 03, 2016 (GMT -0700)
Lake County

Weather History for KLXV - November, 2012

Change the Weather History Date:

Monday, November 12, 2012

  Actual Average Record
Temperature  
Mean Temperature 13 °F -  
Max Temperature 31 °F 38 °F 57 °F (1999)
Min Temperature -5 °F 14 °F -11 °F (2014)
Degree Days  
Heating Degree Days 52 39  
Month to date heating degree days 415 441  
Since 1 July heating degree days 2375 2630  
Cooling Degree Days 0 0  
Month to date cooling degree days 0 0  
Year to date cooling degree days 0 0  
Moisture  
Dew Point 1 °F    
Average Humidity 57    
Maximum Humidity 78    
Minimum Humidity 35    
Precipitation  
Precipitation 0.00 in 0.03 in 0.31 in (1993)
Month to date precipitation 0.16 0.34  
Year to date precipitation 10.30 11.28  
Sea Level Pressure  
Sea Level Pressure 30.39 in    
Wind  
Wind Speed 7 mph (North)    
Max Wind Speed 15 mph    
Max Gust Speed 22 mph    
Visibility 10 miles    
Events      
T = Trace of Precipitation, MM = Missing Value Source: NWS Daily Summary

Daily Weather History Graph

Daily Weather History Graph

Search for Another Location

Airport or City:

Trip Planner

Search our weather history database for the weather conditions in past years. The results will help you decide how hot, cold, wet, or windy it might be!

Date:

Astronomy

Nov. 12, 2012 Rise Set
Actual Time 6:45 AM MST 4:52 PM MST
Civil Twilight 6:17 AM MST 5:21 PM MST
Nautical Twilight 5:45 AM MST 5:53 PM MST
Astronomical Twilight 5:13 AM MST 6:24 PM MST
Moon 5:14 AM MST (11/12) 3:59 PM MST (11/12)
Length of Visible Light 11h 03m
Length of Day
10h 06m
Waning Crescent, 2% of the Moon is Illuminated
Nov 12
Waning Crescent
Nov 13
New
Nov 20
First Quarter
Nov 28
Full
Dec 6
Last Quarter

Hourly Weather History & Observations

Time (MST) Temp. Windchill Dew Point Humidity Pressure Visibility Wind Dir Wind Speed Gust Speed Precip Events Conditions
12:53 AM 7.0 °F 0.1 °F -2.0 °F 67% 30.35 in 10.0 mi Variable 3.5 mph - N/A   Overcast
1:53 AM 6.1 °F -6.8 °F -2.0 °F 69% 30.38 in 10.0 mi NW 8.1 mph 16.1 mph N/A   Mostly Cloudy
2:16 AM 5.0 °F -4.1 °F -2.2 °F 72% 30.24 in 10.0 mi North 4.6 mph 17.3 mph N/A   Partly Cloudy
2:53 AM 1.0 °F -12.9 °F -5.1 °F 75% 30.44 in 10.0 mi ENE 8.1 mph - N/A   Scattered Clouds
3:03 AM 3.2 °F -11.3 °F -4.0 °F 72% 30.26 in 10.0 mi ENE 9.2 mph - N/A   Mostly Cloudy
3:16 AM 3.2 °F -9.1 °F -5.8 °F 66% 30.27 in 10.0 mi Variable 6.9 mph - N/A   Partly Cloudy
3:53 AM 1.0 °F -14.0 °F -6.0 °F 72% 30.47 in 10.0 mi East 9.2 mph - N/A   Clear
4:53 AM -4.0 °F -19.0 °F -9.0 °F 79% 30.53 in 10.0 mi NE 8.1 mph - N/A   Clear
5:53 AM -0.9 °F -16.4 °F -8.0 °F 72% 30.53 in 10.0 mi NE 9.2 mph - N/A   Clear
6:53 AM 1.0 °F -14.0 °F -8.0 °F 66% 30.53 in 10.0 mi NE 9.2 mph - N/A   Clear
7:53 AM 6.1 °F -0.9 °F -7.1 °F 55% 30.51 in 10.0 mi NNE 3.5 mph - N/A   Clear
8:53 AM 14.0 °F 3.9 °F -4.0 °F 45% 30.46 in 10.0 mi NNE 6.9 mph - N/A   Clear
9:53 AM 19.9 °F 12.1 °F -2.9 °F 37% 30.42 in 10.0 mi NNW 5.8 mph - N/A   Clear
10:53 AM 24.1 °F 15.2 °F -0.0 °F 35% 30.38 in 10.0 mi NNW 8.1 mph - N/A   Clear
11:53 AM 27.0 °F 18.0 °F 3.0 °F 36% 30.35 in 10.0 mi NW 9.2 mph - N/A   Clear
12:53 PM 28.9 °F 19.2 °F 6.1 °F 38% 30.32 in 10.0 mi NW 11.5 mph - N/A   Clear
1:53 PM 28.9 °F 19.8 °F 7.0 °F 40% 30.32 in 10.0 mi WNW 10.4 mph - N/A   Clear
2:53 PM 30.9 °F 24.3 °F 8.1 °F 38% 30.35 in 10.0 mi NW 6.9 mph - N/A   Clear
3:53 PM 28.9 °F 20.4 °F 9.0 °F 43% 30.37 in 10.0 mi WNW 9.2 mph - N/A   Clear
4:53 PM 24.1 °F 15.2 °F 9.0 °F 53% 30.43 in 10.0 mi North 8.1 mph - N/A   Clear
5:53 PM 21.0 °F 11.4 °F 7.0 °F 55% 30.43 in 10.0 mi NNE 8.1 mph - N/A   Clear
6:53 PM 17.1 °F 10.0 °F 8.1 °F 68% 30.45 in 10.0 mi NNE 4.6 mph - N/A   Clear
7:53 PM 12.0 °F 1.5 °F 5.0 °F 73% 30.46 in 10.0 mi NNE 6.9 mph - N/A   Clear
8:53 PM 19.0 °F - 7.0 °F 59% 30.35 in 10.0 mi Calm Calm - N/A   Clear
9:53 PM 10.0 °F 1.8 °F 5.0 °F 80% 30.37 in 10.0 mi NNE 4.6 mph - N/A   Partly Cloudy
10:53 PM 12.9 °F 6.9 °F 7.0 °F 77% 30.30 in 10.0 mi North 3.5 mph - N/A   Overcast
11:53 PM 17.1 °F - 9.0 °F 71% 30.25 in 10.0 mi Calm Calm - N/A   Overcast